Dewpoint
16 14 11 7 6 6 8 7 8 8 8 7 5 7 5 5 5 5 3 4 6 6 7 8 12 10 23 24 28 29 34 48 50 52 53 54 55 55 54 56 57 58 59 61 63 64 64 65 65 65 64 64 65 65 66 66 66 66 65 65 65 65 65 65 64 64 64 64 64 64 64 63 64 65 65 66 66 66 66 67 67 67 66 66 66 67
16 15 14 10 7 7 8 10 17 10 8 7 7 6 5 5 4 3 2 5 6 16 7 11 11 10 17 24 26 27 37 48 49 50 52 53 53 53 56 56 57 59 61 60 61 62 64 64 65 64 64 64 64 65 65 65 65 65 66 65 65 65 65 66 66 65 65 64 64 63 63 63 64 64 64 65 65 66 67 67 67 67 67 66 66 66
16 15 15 14 9 8 12 13 14 15 14 9 6 9 7 4 4 3 1 6 6 7 9 8 10 10 20 25 22 27 28 47 49 49 51 52 54 55 57 58 60 61 61 61 62 63 65 64 64 64 64 64 64 64 65 66 66 66 66 66 65 64 65 64 65 65 64 65 66 65 64 64 64 65 65 65 66 67 67 67 67 66 66 66 66 65
16 14 16 15 11 11 13 12 12 13 14 12 10 9 9 7 3 2 5 6 6 9 12 10 10 17 27 30 26 31 49 51 53 53 53 54 55 57 58 59 60 61 61 62 62 63 63 63 63 63 63 63 63 63 64 64 64 65 65 65 65 64 65 63 64 64 64 65 65 65 65 65 65 64 65 65 65 65 65 65 66 65 66 66 66 66
15 14 15 14 15 13 15 14 13 14 10 12 8 7 8 8 4 1 5 5 6 7 16 13 29 29 29 30 29 40 52 52 53 54 55 56 57 58 59 60 61 61 61 61 61 62 62 62 62 62 63 63 63 63 63 64 64 64 64 64 64 64 65 65 66 66 65 65 64 64 65 65 65 65 65 64 64 65 65 65 65 65 66 66 66 66
15 15 16 15 15 15 14 11 9 10 8 9 12 9 8 8 7 3 6 5 9 10 15 19 27 28 32 31 31 39 50 51 53 54 54 55 56 57 58 59 61 61 61 60 60 61 61 61 62 62 63 62 62 63 64 64 65 64 65 65 64 64 64 64 64 65 65 65 64 64 64 64 63 63 62 63 63 64 64 65 66 66 66 66 66 66
14 17 16 16 15 14 12 9 5 5 7 10 9 10 9 9 9 8 4 7 7 7 7 25 25 25 32 30 35 40 49 52 54 54 55 55 55 56 57 59 59 60 59 59 59 60 60 60 60 60 61 62 62 64 65 65 65 65 66 65 65 65 65 65 65 66 66 64 64 64 64 64 63 62 63 64 65 64 65 66 65 66 66 66 66 66
13 16 15 15 14 12 10 7 4 3 6 6 9 12 11 10 9 9 4 7 9 13 14 27 28 29 28 31 37 39 46 49 53 54 55 55 55 56 58 59 58 58 58 58 58 59 59 59 59 59 59 59 60 61 61 62 62 62 61 63 64 64 63 63 63 64 64 65 64 64 64 63 63 63 63 64 64 65 66 64 64 65 65 66 66 66
16 14 15 12 11 8 5 4 3 3 4 7 10 11 10 10 9 9 7 10 11 12 21 29 31 28 28 31 35 38 43 49 52 54 55 55 56 56 57 57 57 57 57 57 57 57 57 58 58 58 58 58 59 59 60 60 60 60 59 60 61 60 61 61 61 62 62 63 63 64 64 63 63 63 64 64 64 64 64 64 64 63 64 65 65 65
11 12 13 11 8 6 5 3 3 3 4 7 10 10 10 9 10 11 11 8 15 9 17 28 30 27 28 32 35 35 40 46 52 53 53 54 55 55 55 56 56 56 56 56 56 56 56 56 57 57 57 57 58 58 59 59 59 59 59 59 59 59 59 60 60 60 61 61 62 62 62 63 63 63 63 64 64 63 63 63 63 63 63 63 64 64
11 18 19 11 7 7 6 4 4 4 7 10 9 8 8 8 14 16 19 15 17 13 14 23 27 25 24 29 34 35 38 51 52 53 53 53 54 54 55 54 55 55 55 55 55 55 55 56 56 56 56 56 57 57 57 57 58 58 57 58 58 58 59 59 59 60 60 60 60 60 61 61 61 61 62 62 62 63 63 63 63 63 63 63 63 63
11 11 11 11 12 9 7 5 5 5 8 9 8 8 8 11 16 17 21 15 12 13 14 16 18 22 20 25 33 39 49 52 52 52 52 53 53 53 54 54 54 54 55 55 54 54 54 54 55 55 55 55 56 56 56 56 57 57 57 57 57 57 58 58 59 59 59 59 59 59 60 60 60 60 60 60 61 62 63 63 63 63 63 62 63 63
12 9 9 10 19 8 6 4 5 6 6 6 8 10 10 11 9 10 13 12 13 11 14 10 15 17 19 38 36 49 51 52 52 52 52 51 52 52 53 53 53 54 53 54 53 53 53 54 54 54 55 55 55 55 56 56 56 57 56 56 56 57 57 58 58 57 58 58 58 58 59 59 59 59 59 60 60 62 63 63 63 63 63 62 61 62
14 11 9 9 10 13 5 3 5 5 4 5 6 12 11 8 7 8 12 18 14 16 14 11 10 13 35 43 49 49 50 51 51 51 51 51 51 52 53 53 53 53 53 53 53 53 53 53 53 54 54 54 54 55 56 56 56 56 56 56 55 55 55 56 56 56 57 57 57 57 58 58 58 58 59 59 60 62 63 63 63 63 63 62 61 62
15 11 8 9 9 9 6 4 4 5 5 5 7 7 18 11 15 6 10 12 16 15 16 13 13 29 35 42 49 50 51 51 50 50 51 51 51 51 51 52 52 52 52 52 52 52 52 53 53 53 53 53 54 54 56 55 55 55 56 55 54 54 54 55 55 55 56 57 58 57 57 57 58 58 58 59 60 62 62 62 62 62 62 62 62 62
11 14 10 9 11 7 5 4 5 5 5 5 7 9 12 13 17 11 19 16 17 15 14 25 33 43 42 48 49 49 49 49 50 50 50 50 50 50 50 50 50 51 51 51 50 51 52 52 53 53 53 53 53 55 55 55 55 55 55 54 54 53 53 54 54 54 56 56 57 57 57 58 58 58 58 58 59 60 61 62 62 62 61 61 62 62
12 15 10 9 10 5 5 5 3 4 9 12 8 10 10 13 11 17 18 30 21 20 28 38 41 44 49 49 48 49 48 48 49 49 49 49 49 49 49 50 50 50 50 50 50 50 50 50 51 52 53 53 54 54 55 54 54 55 54 53 52 53 53 53 54 54 55 55 55 55 56 57 57 57 56 57 58 59 60 62 62 62 62 62 62 62
19 20 9 8 8 8 5 5 3 4 7 7 8 8 10 7 12 23 16 15 19 19 22 38 37 40 40 35 48 47 47 48 48 48 48 48 48 48 49 49 49 49 49 49 49 49 50 50 51 51 51 52 54 54 53 55 54 53 54 53 53 52 52 53 53 54 54 54 54 54 55 56 56 57 56 56 56 57 58 58 58 60 61 61 62 62
18 15 11 8 8 7 6 7 7 10 9 5 7 6 5 10 9 25 19 10 12 17 30 36 40 40 39 39 46 46 46 47 47 47 47 47 48 48 48 48 48 48 48 48 48 48 49 49 50 50 51 52 53 53 53 52 52 53 53 53 52 52 52 52 54 54 54 54 55 56 55 56 56 56 55 56 56 56 55 55 56 57 59 60 61 62
20 19 16 9 8 9 9 8 13 11 8 5 6 4 4 20 18 12 16 20 16 17 30 34 38 33 40 42 45 45 46 46 47 47 47 47 47 47 47 48 48 48 47 47 47 48 48 48 49 51 51 52 52 52 52 52 51 50 53 52 51 51 51 52 53 54 54 55 54 54 55 55 55 55 55 55 55 55 54 54 55 55 57 58 59 60
21 23 23 10 7 11 10 12 10 12 11 7 8 8 5 21 23 16 25 9 19 19 29 32 32 35 41 44 46 46 46 46 47 47 47 47 47 47 47 47 47 47 47 47 47 47 48 49 49 50 51 52 52 52 52 50 50 51 51 51 51 50 50 51 52 54 53 53 52 52 52 54 53 54 53 53 53 54 53 53 54 54 55 57 57 58
23 18 24 19 8 9 11 11 11 10 9 8 8 13 8 8 12 7 17 14 16 15 23 31 29 39 45 50 47 46 47 47 47 47 47 47 47 47 47 47 47 46 46 46 46 48 48 49 49 49 49 49 49 50 49 50 50 49 49 51 50 50 50 50 51 52 53 52 52 52 51 51 52 53 51 52 52 52 52 52 53 53 54 54 55 56
31 31 28 18 15 12 11 9 10 9 9 6 3 8 6 16 17 12 14 16 13 17 29 33 33 33 47 50 48 47 47 47 47 47 47 47 47 47 47 47 46 46 46 46 46 47 49 48 47 48 47 47 48 48 49 49 49 49 49 50 50 50 49 50 51 51 51 52 51 51 51 51 51 50 50 51 51 50 50 51 52 52 52 52 53 53
37 23 20 15 14 15 13 9 9 9 8 6 3 9 6 15 16 18 22 24 14 19 21 31 32 37 47 49 49 47 47 47 47 46 46 46 47 46 45 45 45 45 45 46 48 49 48 46 46 46 46 47 47 47 47 48 49 49 49 50 49 48 49 50 50 50 50 49 49 50 50 49 50 50 49 49 49 49 49 50 50 51 51 51 51 51
20 25 22 17 14 19 15 14 10 8 8 10 13 12 6 10 12 24 24 31 14 25 28 29 31 36 46 48 48 46 46 45 46 46 46 45 45 45 45 45 45 45 46 46 46 46 46 46 46 46 46 46 47 47 47 47 47 47 48 49 49 48 49 49 49 50 49 49 48 49 49 48 48 48 49 48 48 48 49 49 49 49 50 50 50 50
20 28 25 18 17 15 14 13 14 12 7 16 23 6 9 6 18 16 13 19 15 29 35 35 35 43 46 46 46 45 45 45 45 45 45 45 44 44 44 44 45 45 45 45 45 46 45 46 46 46 46 46 46 45 46 46 46 46 46 46 48 48 48 49 49 49 48 48 48 48 48 48 48 48 48 48 48 48 48 48 48 48 49 49 48 48
25 31 28 24 20 19 18 22 26 15 17 11 19 18 7 9 15 23 30 22 21 29 35 39 40 40 42 44 44 44 44 44 45 45 44 44 44 44 44 44 45 45 45 44 45 45 45 44 44 45 45 45 45 45 45 45 45 45 46 45 46 47 48 47 47 48 47 47 47 47 47 47 47 47 48 48 48 48 48 48 48 48 48 48 47 47
29 22 27 31 27 24 18 21 18 17 19 19 18 20 14 11 18 24 21 24 32 34 35 41 42 40 41 44 44 44 44 44 45 44 44 44 44 44 44 44 45 44 44 45 44 43 43 44 44 43 43 43 43 43 44 44 45 45 45 45 46 47 47 47 46 46 47 47 47 47 47 47 47 47 48 48 47 47 47 47 47 47 47 47 46 46
30 23 29 30 29 28 17 16 17 13 13 22 21 24 22 19 19 22 29 35 31 26 35 41 42 41 43 43 44 44 44 43 43 43 44 44 44 44 44 43 43 43 43 43 42 42 42 42 43 42 42 42 41 41 42 43 43 44 44 45 45 45 46 46 46 46 46 46 46 46 46 47 47 46 46 47 47 47 46 47 47 46 46 46 45 46
25 26 32 28 32 34 32 28 31 23 22 19 21 25 27 24 24 34 41 39 36 37 42 42 42 42 44 43 44 44 43 43 43 43 43 43 43 43 43 43 42 43 41 41 41 42 42 42 41 41 41 40 40 41 41 42 42 43 43 43 44 45 45 45 45 45 45 45 46 46 46 46 46 45 46 45 45 45 46 46 46 46 45 45 44 44
33 29 37 32 27 29 38 36 38 38 33 24 38 41 41 42 41 41 41 42 43 42 42 42 41 39 43 45 44 44 43 43 43 42 42 42 43 43 42 42 40 39 40 40 41 41 41 40 40 40 40 40 40 40 41 41 41 42 41 42 43 44 44 44 44 44 44 45 45 46 45 45 45 45 45 45 45 45 45 45 45 45 44 44 44 44
39 32 40 33 26 26 39 38 37 38 38 37 38 39 41 42 39 40 39 42 42 41 41 40 37 36 41 44 44 44 43 42 42 42 42 42 42 42 41 39 39 38 38 39 40 40 40 40 41 40 39 39 39 40 40 39 40 41 40 42 43 43 43 43 43 43 43 44 44 45 44 44 44 44 44 44 44 44 44 44 44 44 43 43 43 43
37 34 30 28 27 29 38 38 36 37 32 32 34 37 40 41 42 41 42 43 42 42 39 37 38 40 42 43 42 42 43 42 42 41 41 41 41 40 39 38 37 38 38 39 39 40 39 40 41 41 40 40 40 40 39 41 41 40 41 42 43 43 43 42 42 42 42 43 43 43 43 43 43 43 43 43 43 43 43 44 43 43 43 42 43 42
37 35 32 33 27 32 37 37 36 30 27 30 39 40 42 40 39 38 38 39 40 40 39 40 40 41 42 41 41 42 42 42 41 41 41 41 40 39 38 38 38 39 39 39 39 40 40 41 40 40 40 39 39 40 40 41 41 41 42 42 42 42 42 42 42 42 42 42 41 41 41 41 41 42 42 43 43 42 42 42 43 43 43 42 42 41
36 35 33 33 28 31 33 34 29 24 30 37 43 41 41 39 39 38 38 39 40 40 40 40 40 40 41 41 41 41 40 41 41 40 40 40 39 38 38 38 38 39 39 39 40 40 41 40 40 40 40 40 40 40 40 40 39 38 41 42 42 42 42 42 41 41 41 41 41 41 40 40 39 39 38 39 39 41 41 41 42 43 43 42 41 41
33 33 32 31 30 30 30 30 25 29 35 41 43 42 43 40 38 37 37 38 39 40 40 39 40 40 40 39 39 39 39 39 40 40 39 39 39 38 38 38 39 39 39 39 40 40 40 40 39 39 39 41 40 39 39 39 39 37 39 41 41 41 41 41 41 41 41 40 40 40 40 39 38 37 37 37 38 38 39 40 41 41 42 42 41 41
36 35 33 32 33 29 30 30 30 36 37 39 38 38 39 37 37 35 33 36 39 39 39 39 39 38 38 38 38 38 38 38 38 39 41 39 39 39 38 38 39 40 40 40 40 39 40 40 40 40 40 40 40 40 40 40 39 38 37 38 39 40 41 41 40 40 40 40 40 40 40 39 39 38 37 37 37 37 38 38 39 41 41 40 40 40
33 31 34 32 30 31 30 29 30 30 29 34 40 42 44 42 40 39 36 35 40 39 38 38 37 37 37 37 37 38 38 37 34 35 40 39 39 40 40 40 40 40 39 39 39 40 40 39 40 41 40 39 39 39 39 39 39 38 38 38 37 39 40 40 40 40 39 38 37 38 39 39 38 36 34 34 35 36 36 37 37 38 39 39 39 39
40 36 35 32 30 30 29 29 28 28 28 35 39 42 43 40 40 40 34 31 38 38 37 37 37 37 37 36 36 37 36 33 33 36 39 40 39 39 38 38 39 38 39 39 38 38 38 39 39 40 40 39 39 39 39 39 38 38 38 38 38 38 38 38 39 38 37 36 36 36 38 39 38 34 33 33 34 35 35 35 36 37 37 36 37 38
38 32 32 32 30 30 30 29 29 31 30 37 41 42 40 41 41 34 25 29 37 37 37 37 36 36 36 36 37 37 35 32 33 36 38 38 39 38 38 38 38 38 38 38 38 39 39 40 38 37 37 37 38 38 38 38 38 39 38 38 37 37 37 37 37 37 36 36 36 36 37 38 39 36 34 34 34 34 34 35 34 35 35 35 35 36
30 27 31 31 32 32 31 31 32 33 36 40 41 42 42 44 38 26 24 31 37 37 37 36 36 36 36 36 37 36 36 36 36 37 38 38 38 38 38 38 37 37 37 38 38 39 38 37 35 34 34 35 36 38 38 38 38 38 38 38 37 37 38 38 38 38 38 37 36 36 37 37 38 37 35 34 34 35 35 34 33 34 34 33 33 33
29 27 29 32 31 31 31 31 32 33 38 41 41 44 42 37 28 30 35 38 37 36 37 36 36 36 36 37 36 35 36 37 38 38 37 37 37 37 37 37 37 37 38 39 38 37 37 35 34 34 35 35 36 36 37 38 38 38 37 37 36 37 38 39 38 38 38 38 38 38 37 37 38 39 38 36 35 34 34 34 33 34 33 32 31 31
32 28 27 29 30 32 30 29 31 30 35 42 41 38 39 33 31 36 37 37 37 37 36 36 36 36 37 36 36 37 37 37 37 37 37 37 37 36 36 35 36 36 36 36 36 37 37 34 34 35 34 34 34 35 36 37 37 38 38 37 37 38 38 39 39 39 38 38 38 38 37 37 37 38 39 36 35 34 34 34 33 32 33 31 30 30
39 30 30 30 34 30 29 29 30 34 38 42 40 32 37 38 38 37 36 36 37 37 37 37 37 37 36 36 36 36 36 36 36 36 36 36 36 36 35 36 36 36 36 35 34 33 33 34 34 34 34 35 35 35 35 36 36 37 37 37 38 38 38 38 39 39 38 38 38 38 38 37 37 37 37 37 35 34 33 33 33 32 32 31 30 29
39 37 35 32 37 32 31 34 39 40 39 39 39 38 38 38 38 38 37 37 36 37 38 37 36 36 36 36 36 36 35 36 36 36 36 36 35 35 35 35 35 35 34 34 33 34 32 31 32 33 32 31 32 33 35 36 35 35 34 36 37 37 37 38 38 37 37 37 37 37 37 37 37 37 36 36 36 34 33 33 33 31 31 30 30 30
41 39 39 38 37 39 40 39 39 38 38 38 39 39 38 38 38 38 38 37 37 37 37 36 36 36 36 36 35 36 36 36 36 36 35 35 35 35 35 34 34 34 33 33 32 32 32 33 34 33 32 30 32 34 35 35 35 34 34 36 37 37 38 38 38 37 36 37 37 37 37 37 36 36 36 36 36 36 33 32 33 32 31 31 30 30
39 41 38 37 39 36 33 40 38 38 38 38 38 39 39 39 39 38 37 36 36 37 37 37 37 36 36 36 36 35 35 36 35 35 35 35 33 32 33 33 33 32 33 32 33 33 32 33 33 31 31 30 31 31 31 32 35 35 35 35 35 36 37 38 37 37 36 35 36 37 38 37 36 36 36 35 36 37 36 32 32 32 33 32 31 31
37 38 36 37 37 34 36 40 38 38 38 38 38 37 38 38 38 38 37 37 37 37 37 37 37 37 37 36 36 35 35 35 34 34 33 33 33 33 32 33 33 33 34 34 34 33 31 30 30 31 31 31 32 32 32 30 30 31 33 33 34 36 36 35 34 33 33 34 35 36 37 37 35 36 35 34 34 35 35 35 33 32 32 32 32 31
36 38 33 37 37 38 39 38 38 38 38 38 38 38 38 38 37 37 37 37 37 36 36 37 37 36 36 35 36 35 34 34 34 33 33 33 33 33 33 34 32 31 30 30 32 33 32 31 30 30 30 30 30 30 30 30 30 30 30 31 31 31 33 35 33 31 29 31 34 34 35 37 37 36 35 34 34 34 33 34 34 34 33 33 32 32
37 35 37 36 35 34 35 37 37 35 35 39 38 38 38 38 37 37 37 37 37 36 37 36 36 36 36 36 35 34 34 33 33 33 32 32 32 33 33 32 32 32 32 33 32 31 34 34 32 32 31 30 31 33 33 32 32 32 30 30 29 30 31 32 32 33 32 30 30 31 33 34 34 37 36 35 34 33 33 33 35 34 32 31 34 35
36 37 36 34 34 34 37 38 39 38 37 37 37 38 38 37 37 36 36 36 37 37 37 36 36 36 36 36 35 34 34 34 33 33 32 32 33 33 33 31 31 31 30 31 31 31 30 30 32 32 32 34 34 33 33 31 29 30 31 30 30 30 30 32 32 31 32 32 30 31 31 31 32 33 36 36 35 35 33 33 33 34 34 34 35 35